User: anonymous   Login
Location: *
(51.2167°N, 10.0667°E)
Time: 11:32:54
(UTC+00:00)
Language:

Cosmos 407 Rocket - Orbit

View from above orbital plane
View from above orbital plane
View from above satellite
View from above satellite

Ground track
Ground track

The orbit data is extracted from the following two-line orbital elements,

1  5175U 71035B   20056.54243929 +.00000052 +00000-0 +25829-4 0  9992
2  5175 074.0483 199.6517 0029697 166.9290 193.2641 14.37969943556030
Epoch (UTC): 25 February 2020 13:01:06
Eccentricity: 0.0029697
inclination: 74.0483°
perigee height: 744 km
apogee height: 786 km
right ascension of ascending node: 199.6517°
argument of perigee: 166.9290°
revolutions per day: 14.37969943
mean anomaly at epoch: 193.2641°
orbit number at epoch: 55603

The dashed part of the orbit path shows where the satellite is in the earth's shadow,  

DLR